sat.trackr.live / text

‹ back to catalog

TRANSPORTER-16 OBJECT AT

NORAD 68457 · 2026-067AT

PAYLOAD ACTIVE UNKNOWN

§ Identity

Operator
Country
TBD
Launch date
2026-03-30
Launch site
AFWTR
Launch vehicle
Mass (kg)
RCS (m²)

External: N2YO · Heavens-Above · Gunter

§ Orbital elements

Epoch: 2026-05-24T20:29:51.527904Z

Period
94.80 min
Inclination
97.4532°
Eccentricity
0.0003856
Mean motion
15.18961763 rev/d
Perigee alt
506.3 km
Apogee alt
511.6 km
Semi-major
6,887.1 km
B*
4.1893e-4
RAAN
103.7083°
Arg perigee
81.7364°
Mean anomaly
278.4307°
Rev number
840

§ Raw data

TRANSPORTER-16 OBJECT AT1 68457U 26067AT  26144.85406861  .00008694  00000+0  41893-3 0  99902 68457  97.4532 103.7083 0003856  81.7364 278.4307 15.18961763  8405

JSON: /api/v1/satellites/68457 · /tle

For live sub-satellite position, see the globe view (requires WebGL).

§ Visibility from observer

Set your observer location to see the next 7 days of passes ≥ 10°. The values pass through the URL so the page stays shareable.

No JS? Fill the form by hand. The geolocation button needs JavaScript.